Погода в Перелесках

Россия / Ярославская область     56°52′11″N   39°03′26″E
темп.,
°C
ветер,
м/с
пор.,
м/с
влажн.,
%
обл.,
%
осадки,
мм/ч
давл.,
гПа
погр.,
м
15 августа, пн
пн1500:00+21ю2455100 0.0 102177
03:00+19ююв236397 0.0 102257
06:00+18ююв236893 0.0 102260
09:00+22юв245556 0.0 1022341
12:00+27юв45375 0.0 10222083
15:00+28юв453416 0.0 10212356
18:00+26юв35428 0.0 1021303
21:00+20юв34535 0.0 102251
16 августа, вт
вт1600:00+18юв376026 0.0 1023112
03:00+17юв3568100 0.0 102393
06:00+17юв2469100 0.0 102473
09:00+23юв355386 0.0 1024467
12:00+27вюв454048 0.0 10232203
15:00+28вюв553670 0.0 10222265
18:00+26всв474425 0.0 1021618
21:00+22вюв3949100 0.0 1022254
17 августа, ср
ср1700:00+17вюв38655 0.0 1023129
03:00+16в367899 0.0 1022110
06:00+16в3879100 0.0 1022165
09:00+22в585192 0.0 1021516
12:00+27в6738100 0.0 10201296
15:00+29вюв563349 0.0 10191918
18:00+28вюв46405 0.0 1018524
21:00+21в411595 0.0 1019208
18 августа, чт
чт1800:00+18вюв39685 0.0 1019155
03:00+17вюв3674100 0.0 1020106
06:00+17вюв3771100 0.0 1020137
09:00+23вюв464683 0.0 1020480
12:00+27в453368 0.0 10201511
15:00+28в452897 0.0 10201989
18:00+26всв473781 0.0 1020384
21:00+20в385397 0.0 1020125
19 августа, пт
пт1900:00+18в396498 0.0 1021164
03:00+17в3107292 0.0 1021199
06:00+16всв310765 0.0 1022209
09:00+23в594742 0.0 1021555
12:00+28в683218 0.0 10211544
15:00+30вюв68295 0.0 10202528
18:00+27юв6843100 0.0 10211350
21:00+20юв39615 0.0 1022165